| time (UTC) | temp C | wind direction | speed KPH | gust KPH | rain 1hr cm | rain 24hr cm | rain mn cm | humidity % | barometer mb |
| 20260508141104 | 11 | 30 | 0.0 | 0.0 | 0.00 | 0.00 | 0.00 | 92 | 1015.7 |
| 20260508140604 | 11 | 30 | 0.0 | 1.6 | 0.00 | 0.00 | 0.00 | 92 | 1015.6 |
| 20260508140105 | 11 | 30 | 0.0 | 1.6 | 0.00 | 0.00 | 0.00 | 91 | 1015.5 |
| 20260508135604 | 11 | 30 | 0.0 | 0.0 | 0.00 | 0.00 | 0.00 | 91 | 1015.6 |
| 20260508135104 | 11 | 30 | 0.0 | 0.0 | 0.00 | 0.00 | 0.00 | 91 | 1015.5 |
| 20260508134104 | 11 | 30 | 0.0 | 1.6 | 0.00 | 0.00 | 0.00 | 90 | 1015.4 |
| 20260508133604 | 10 | 30 | 0.0 | 1.6 | 0.00 | 0.00 | 0.00 | 89 | 1015.5 |
| 20260508132604 | 10 | 30 | 0.0 | 1.6 | 0.00 | 0.00 | 0.00 | 88 | 1015.4 |
| 20260508132106 | 10 | 30 | 0.0 | 1.6 | 0.00 | 0.00 | 0.00 | 88 | 1015.3 |
| 20260508131607 | 11 | 263 | 0.0 | 1.6 | 0.00 | 0.00 | 0.00 | 88 | 1015.3 |
| 20260508131104 | 11 | 253 | 0.0 | 1.6 | 0.00 | 0.00 | 0.00 | 88 | 1015.2 |
| 20260508130605 | 11 | 253 | 0.0 | 1.6 | 0.00 | 0.00 | 0.00 | 87 | 1015.0 |
| 20260508130104 | 11 | 253 | 0.0 | 1.6 | 0.00 | 0.00 | 0.00 | 87 | 1015.0 |
| 20260508125104 | 11 | 285 | 0.0 | 1.6 | 0.00 | 0.00 | 0.00 | 87 | 1015.0 |
| 20260508124604 | 11 | 300 | 0.0 | 0.0 | 0.00 | 0.00 | 0.00 | 87 | 1015.0 |
| 20260508124104 | 11 | 300 | 0.0 | 0.0 | 0.00 | 0.00 | 0.00 | 86 | 1014.9 |
| 20260508123605 | 11 | 300 | 0.0 | 0.0 | 0.00 | 0.00 | 0.00 | 86 | 1014.9 |
| 20260508123104 | 11 | 300 | 0.0 | 1.6 | 0.00 | 0.00 | 0.00 | 86 | 1014.9 |
| 20260508121104 | 12 | 301 | 0.0 | 1.6 | 0.00 | 0.00 | 0.00 | 85 | 1014.7 |
| 20260508120605 | 12 | 301 | 0.0 | 1.6 | 0.00 | 0.00 | 0.00 | 85 | 1014.6 |
| 20260508120105 | 12 | 301 | 0.0 | 1.6 | 0.00 | 0.00 | 0.00 | 85 | 1014.5 |
| 20260508115104 | 12 | 298 | 0.0 | 1.6 | 0.00 | 0.00 | 0.00 | 85 | 1014.4 |
| 20260508114104 | 13 | 298 | 0.0 | 1.6 | 0.00 | 0.00 | 0.00 | 86 | 1014.3 |
| 20260508113604 | 13 | 298 | 0.0 | 1.6 | 0.00 | 0.00 | 0.00 | 86 | 1014.3 |
| 20260508113104 | 13 | 298 | 0.0 | 1.6 | 0.00 | 0.00 | 0.00 | 86 | 1014.4 |
| 20260508112104 | 13 | 298 | 0.0 | 1.6 | 0.00 | 0.00 | 0.00 | 86 | 1014.4 |
| 20260508111606 | 12 | 298 | 0.0 | 1.6 | 0.00 | 0.00 | 0.00 | 85 | 1014.3 |
| 20260508111105 | 12 | 298 | 0.0 | 0.0 | 0.00 | 0.00 | 0.00 | 85 | 1014.3 |
| 20260508110605 | 12 | 298 | 0.0 | 0.0 | 0.00 | 0.00 | 0.00 | 85 | 1014.3 |
| 20260508110104 | 12 | 298 | 0.0 | 0.0 | 0.00 | 0.00 | 0.00 | 85 | 1014.3 |
| 20260508105604 | 12 | 298 | 0.0 | 1.6 | 0.00 | 0.00 | 0.00 | 85 | 1014.3 |
| 20260508104104 | 13 | 298 | 0.0 | 0.0 | 0.00 | 0.00 | 0.00 | 84 | 1014.7 |
| 20260508103105 | 13 | 298 | 0.0 | 1.6 | 0.00 | 0.00 | 0.00 | 84 | 1014.8 |
| 20260508102606 | 13 | 298 | 0.0 | 1.6 | 0.00 | 0.00 | 0.00 | 84 | 1014.9 |
| 20260508102104 | 13 | 298 | 0.0 | 1.6 | 0.00 | 0.00 | 0.00 | 84 | 1014.9 |
| 20260508101607 | 13 | 298 | 0.0 | 1.6 | 0.00 | 0.00 | 0.00 | 84 | 1014.9 |
| 20260508101104 | 13 | 298 | 0.0 | 1.6 | 0.00 | 0.00 | 0.00 | 83 | 1014.9 |
| 20260508100605 | 13 | 298 | 0.0 | 1.6 | 0.00 | 0.00 | 0.00 | 83 | 1014.9 |
| 20260508100104 | 13 | 298 | 0.0 | 0.0 | 0.00 | 0.00 | 0.00 | 82 | 1014.9 |
| 20260508095604 | 13 | 298 | 0.0 | 0.0 | 0.00 | 0.00 | 0.00 | 82 | 1014.9 |
| 20260508095104 | 13 | 298 | 0.0 | 0.0 | 0.00 | 0.00 | 0.00 | 82 | 1014.9 |
| 20260508094605 | 13 | 298 | 0.0 | 0.0 | 0.00 | 0.00 | 0.00 | 82 | 1014.8 |
| 20260508093605 | 13 | 298 | 0.0 | 0.0 | 0.00 | 0.00 | 0.00 | 82 | 1014.7 |
| 20260508093104 | 13 | 298 | 0.0 | 1.6 | 0.00 | 0.00 | 0.00 | 81 | 1014.7 |
| 20260508092605 | 14 | 298 | 0.0 | 1.6 | 0.00 | 0.00 | 0.00 | 81 | 1014.8 |
| 20260508092104 | 14 | 298 | 0.0 | 1.6 | 0.00 | 0.00 | 0.00 | 81 | 1014.8 |
| 20260508091607 | 15 | 311 | 0.0 | 1.6 | 0.00 | 0.00 | 0.00 | 81 | 1014.8 |
| 20260508091104 | 15 | 312 | 0.0 | 1.6 | 0.00 | 0.00 | 0.00 | 81 | 1014.7 |
| 20260508090605 | 15 | 311 | 0.0 | 1.6 | 0.00 | 0.00 | 0.00 | 81 | 1014.8 |
| 20260508090104 | 15 | 310 | 0.0 | 1.6 | 0.00 | 0.00 | 0.00 | 81 | 1014.8 |
| 20260508085605 | 14 | 310 | 0.0 | 0.0 | 0.00 | 0.00 | 0.00 | 80 | 1014.9 |
| 20260508085104 | 15 | 310 | 0.0 | 0.0 | 0.00 | 0.00 | 0.00 | 80 | 1014.9 |
| 20260508084604 | 15 | 310 | 0.0 | 0.0 | 0.00 | 0.00 | 0.00 | 80 | 1015.0 |
| 20260508084104 | 15 | 310 | 0.0 | 1.6 | 0.00 | 0.00 | 0.00 | 80 | 1015.1 |
| 20260508083104 | 15 | 310 | 0.0 | 0.0 | 0.00 | 0.00 | 0.00 | 79 | 1015.1 |
| 20260508082604 | 15 | 310 | 0.0 | 0.0 | 0.00 | 0.00 | 0.00 | 79 | 1015.3 |
| 20260508082104 | 15 | 310 | 0.0 | 0.0 | 0.00 | 0.00 | 0.00 | 78 | 1015.4 |
| 20260508081104 | 15 | 310 | 0.0 | 1.6 | 0.00 | 0.00 | 0.00 | 78 | 1015.4 |
| 20260508080604 | 15 | 310 | 0.0 | 0.0 | 0.00 | 0.00 | 0.00 | 78 | 1015.5 |
| 20260508080104 | 15 | 310 | 0.0 | 0.0 | 0.00 | 0.00 | 0.00 | 77 | 1015.6 |
| 20260508075604 | 15 | 310 | 0.0 | 0.0 | 0.00 | 0.00 | 0.00 | 77 | 1015.5 |
| 20260508075104 | 15 | 310 | 0.0 | 0.0 | 0.00 | 0.00 | 0.00 | 77 | 1015.6 |
| 20260508074104 | 16 | 310 | 0.0 | 1.6 | 0.00 | 0.00 | 0.00 | 77 | 1015.8 |
| 20260508073104 | 15 | 309 | 0.0 | 0.0 | 0.00 | 0.00 | 0.00 | 76 | 1015.7 |
| 20260508072105 | 16 | 310 | 0.0 | 0.0 | 0.00 | 0.00 | 0.00 | 75 | 1015.7 |
| 20260508071606 | 16 | 309 | 0.0 | 1.6 | 0.00 | 0.00 | 0.00 | 74 | 1015.7 |
| 20260508071104 | 16 | 309 | 0.0 | 1.6 | 0.00 | 0.00 | 0.00 | 74 | 1015.7 |
| 20260508070604 | 16 | 310 | 0.0 | 1.6 | 0.00 | 0.00 | 0.00 | 73 | 1015.6 |
| 20260508070105 | 16 | 310 | 0.0 | 0.0 | 0.00 | 0.00 | 0.00 | 73 | 1015.6 |
| 20260508065604 | 16 | 310 | 0.0 | 0.0 | 0.00 | 0.00 | 0.00 | 73 | 1015.7 |
| 20260508065103 | 16 | 310 | 0.0 | 1.6 | 0.00 | 0.00 | 0.00 | 73 | 1015.7 |
| 20260508064604 | 16 | 310 | 0.0 | 1.6 | 0.00 | 0.00 | 0.00 | 73 | 1015.7 |
| 20260508064104 | 16 | 310 | 0.0 | 0.0 | 0.00 | 0.00 | 0.00 | 73 | 1015.7 |
| 20260508063604 | 16 | 310 | 0.0 | 0.0 | 0.00 | 0.00 | 0.00 | 73 | 1015.7 |
| 20260508063104 | 16 | 310 | 0.0 | 0.0 | 0.00 | 0.00 | 0.00 | 73 | 1015.6 |
| 20260508062104 | 16 | 310 | 0.0 | 0.0 | 0.00 | 0.00 | 0.00 | 73 | 1015.5 |
| 20260508061606 | 16 | 310 | 0.0 | 0.0 | 0.00 | 0.00 | 0.00 | 73 | 1015.6 |
| 20260508061103 | 17 | 310 | 0.0 | 0.0 | 0.00 | 0.00 | 0.00 | 72 | 1015.6 |
| 20260508060603 | 17 | 310 | 0.0 | 0.0 | 0.00 | 0.00 | 0.00 | 71 | 1015.6 |
| 20260508060104 | 17 | 310 | 0.0 | 0.0 | 0.00 | 0.00 | 0.00 | 71 | 1015.6 |
| 20260508055604 | 17 | 310 | 0.0 | 0.0 | 0.00 | 0.00 | 0.00 | 71 | 1015.6 |
| 20260508054604 | 17 | 310 | 0.0 | 0.0 | 0.00 | 0.00 | 0.00 | 70 | 1015.6 |
| 20260508053604 | 17 | 310 | 0.0 | 1.6 | 0.00 | 0.00 | 0.00 | 70 | 1015.7 |
| 20260508053104 | 17 | 309 | 0.0 | 1.6 | 0.00 | 0.00 | 0.00 | 69 | 1015.8 |
| 20260508052604 | 17 | 306 | 0.0 | 3.2 | 0.00 | 0.00 | 0.00 | 69 | 1015.8 |
| 20260508051607 | 18 | 313 | 0.0 | 1.6 | 0.00 | 0.00 | 0.00 | 69 | 1015.7 |
| 20260508051104 | 18 | 300 | 0.0 | 1.6 | 0.00 | 0.00 | 0.00 | 69 | 1015.5 |
| 20260508050603 | 18 | 300 | 0.0 | 0.0 | 0.00 | 0.00 | 0.00 | 69 | 1015.6 |
| 20260508050104 | 18 | 300 | 0.0 | 0.0 | 0.00 | 0.00 | 0.00 | 68 | 1015.4 |
| 20260508045604 | 18 | 300 | 0.0 | 1.6 | 0.00 | 0.00 | 0.00 | 68 | 1015.4 |
| 20260508044604 | 18 | 300 | 0.0 | 1.6 | 0.00 | 0.00 | 0.00 | 67 | 1015.4 |
| 20260508043604 | 19 | 300 | 0.0 | 1.6 | 0.00 | 0.00 | 0.00 | 65 | 1015.4 |
| 20260508043105 | 19 | 300 | 0.0 | 1.6 | 0.00 | 0.00 | 0.00 | 64 | 1015.4 |
| 20260508042603 | 19 | 300 | 0.0 | 1.6 | 0.00 | 0.00 | 0.00 | 63 | 1015.3 |
| 20260508042104 | 20 | 300 | 0.0 | 3.2 | 0.00 | 0.00 | 0.00 | 62 | 1015.1 |
| 20260508041606 | 20 | 300 | 0.0 | 3.2 | 0.00 | 0.00 | 0.00 | 61 | 1014.9 |
| 20260508041105 | 20 | 303 | 1.6 | 3.2 | 0.00 | 0.00 | 0.00 | 61 | 1014.9 |
| 20260508040104 | 20 | 292 | 0.0 | 3.2 | 0.00 | 0.00 | 0.00 | 61 | 1014.8 |
| 20260508035606 | 20 | 291 | 0.0 | 1.6 | 0.00 | 0.00 | 0.00 | 61 | 1014.8 |
| 20260508035104 | 20 | 291 | 0.0 | 0.0 | 0.00 | 0.00 | 0.00 | 61 | 1014.8 |
| 20260508034604 | 20 | 291 | 0.0 | 0.0 | 0.00 | 0.00 | 0.00 | 60 | 1014.7 |
| 20260508034104 | 20 | 291 | 0.0 | 1.6 | 0.00 | 0.00 | 0.00 | 60 | 1014.7 |
| 20260508033604 | 20 | 291 | 0.0 | 3.2 | 0.00 | 0.00 | 0.00 | 60 | 1014.6 |
| 20260508033104 | 20 | 290 | 0.0 | 3.2 | 0.00 | 0.00 | 0.00 | 60 | 1014.5 |
| 20260508032604 | 21 | 289 | 0.0 | 4.8 | 0.00 | 0.00 | 0.00 | 59 | 1014.6 |
| 20260508031604 | 21 | 289 | 3.2 | 4.8 | 0.00 | 0.00 | 0.00 | 58 | 1014.4 |
| 20260508031106 | 21 | 289 | 3.2 | 4.8 | 0.00 | 0.00 | 0.00 | 57 | 1014.3 |
| 20260508030604 | 21 | 289 | 3.2 | 4.8 | 0.00 | 0.00 | 0.00 | 56 | 1014.3 |
| 20260508030104 | 22 | 288 | 3.2 | 4.8 | 0.00 | 0.00 | 0.00 | 55 | 1014.2 |
| 20260508025603 | 22 | 288 | 3.2 | 8.0 | 0.00 | 0.00 | 0.00 | 55 | 1014.2 |
| 20260508025104 | 22 | 288 | 3.2 | 8.0 | 0.00 | 0.00 | 0.00 | 54 | 1014.2 |
| 20260508024604 | 22 | 288 | 3.2 | 4.8 | 0.00 | 0.00 | 0.00 | 54 | 1014.2 |
| 20260508024104 | 23 | 288 | 3.2 | 4.8 | 0.00 | 0.00 | 0.00 | 52 | 1014.1 |
| 20260508023604 | 23 | 288 | 4.8 | 4.8 | 0.00 | 0.00 | 0.00 | 51 | 1014.1 |
| 20260508023104 | 23 | 287 | 1.6 | 4.8 | 0.00 | 0.00 | 0.00 | 50 | 1013.9 |
| 20260508022605 | 24 | 287 | 3.2 | 4.8 | 0.00 | 0.00 | 0.00 | 48 | 1013.9 |
| 20260508022104 | 24 | 287 | 1.6 | 8.0 | 0.00 | 0.00 | 0.00 | 48 | 1013.8 |
| 20260508021607 | 24 | 287 | 3.2 | 8.0 | 0.00 | 0.00 | 0.00 | 47 | 1013.8 |
| 20260508021105 | 25 | 280 | 3.2 | 9.7 | 0.00 | 0.00 | 0.00 | 47 | 1013.7 |
| 20260508020604 | 25 | 279 | 4.8 | 9.7 | 0.00 | 0.00 | 0.00 | 46 | 1013.7 |
| 20260508015604 | 25 | 273 | 6.4 | 11.3 | 0.00 | 0.00 | 0.00 | 45 | 1013.7 |
| 20260508015104 | 25 | 282 | 9.7 | 11.3 | 0.00 | 0.00 | 0.00 | 44 | 1013.7 |
| 20260508014603 | 26 | 266 | 8.0 | 11.3 | 0.00 | 0.00 | 0.00 | 43 | 1013.7 |
| 20260508014104 | 26 | 266 | 8.0 | 12.9 | 0.00 | 0.00 | 0.00 | 42 | 1013.7 |
| 20260508013604 | 26 | 261 | 9.7 | 14.5 | 0.00 | 0.00 | 0.00 | 42 | 1013.7 |
| 20260508013104 | 26 | 262 | 8.0 | 14.5 | 0.00 | 0.00 | 0.00 | 41 | 1013.7 |
| 20260508012605 | 26 | 286 | 9.7 | 14.5 | 0.00 | 0.00 | 0.00 | 41 | 1013.6 |
| 20260508012105 | 27 | 269 | 8.0 | 14.5 | 0.00 | 0.00 | 0.00 | 39 | 1013.6 |
| 20260508011606 | 27 | 285 | 8.0 | 12.9 | 0.00 | 0.00 | 0.00 | 39 | 1013.5 |
| 20260508010604 | 27 | 293 | 9.7 | 12.9 | 0.00 | 0.00 | 0.00 | 37 | 1013.4 |
| 20260508010105 | 27 | 290 | 9.7 | 19.3 | 0.00 | 0.00 | 0.00 | 35 | 1013.5 |
| 20260508005604 | 27 | 266 | 9.7 | 19.3 | 0.00 | 0.00 | 0.00 | 38 | 1013.4 |
| 20260508005104 | 27 | 276 | 8.0 | 19.3 | 0.00 | 0.00 | 0.00 | 37 | 1013.4 |
| 20260508004605 | 27 | 269 | 8.0 | 19.3 | 0.00 | 0.00 | 0.00 | 37 | 1013.3 |
| 20260508004103 | 28 | 285 | 8.0 | 16.1 | 0.00 | 0.00 | 0.00 | 37 | 1013.2 |
| 20260508003604 | 28 | 277 | 9.7 | 16.1 | 0.00 | 0.00 | 0.00 | 37 | 1013.2 |
| 20260508003104 | 28 | 288 | 9.7 | 16.1 | 0.00 | 0.00 | 0.00 | 37 | 1013.2 |
| 20260508002604 | 28 | 259 | 9.7 | 16.1 | 0.00 | 0.00 | 0.00 | 37 | 1013.2 |
| 20260508001606 | 28 | 268 | 8.0 | 19.3 | 0.00 | 0.00 | 0.00 | 37 | 1013.2 |
| 20260508001104 | 28 | 274 | 11.3 | 19.3 | 0.00 | 0.00 | 0.00 | 36 | 1013.2 |
| 20260508000604 | 28 | 289 | 9.7 | 19.3 | 0.00 | 0.00 | 0.00 | 37 | 1013.2 |
| 20260508000105 | 28 | 312 | 11.3 | 19.3 | 0.00 | 0.00 | 0.00 | 37 | 1013.3 |
| 20260507235604 | 28 | 263 | 11.3 | 19.3 | 0.00 | 0.00 | 0.00 | 37 | 1013.3 |
| 20260507235104 | 28 | 266 | 11.3 | 22.5 | 0.00 | 0.00 | 0.00 | 36 | 1013.2 |
| 20260507234605 | 28 | 284 | 11.3 | 22.5 | 0.00 | 0.00 | 0.00 | 35 | 1013.2 |
| 20260507234104 | 28 | 275 | 11.3 | 22.5 | 0.00 | 0.00 | 0.00 | 35 | 1013.2 |
| 20260507233604 | 28 | 261 | 9.7 | 19.3 | 0.00 | 0.00 | 0.00 | 35 | 1013.1 |
| 20260507233104 | 29 | 282 | 9.7 | 19.3 | 0.00 | 0.00 | 0.00 | 34 | 1013.1 |
| 20260507232604 | 29 | 290 | 9.7 | 19.3 | 0.00 | 0.00 | 0.00 | 35 | 1013.0 |
| 20260507232103 | 29 | 298 | 9.7 | 16.1 | 0.00 | 0.00 | 0.00 | 35 | 1012.9 |
| 20260507231104 | 29 | 282 | 11.3 | 20.9 | 0.00 | 0.00 | 0.00 | 34 | 1013.1 |
| 20260507230604 | 29 | 270 | 14.5 | 20.9 | 0.00 | 0.00 | 0.00 | 34 | 1013.0 |
| 20260507230104 | 29 | 279 | 12.9 | 19.3 | 0.00 | 0.00 | 0.00 | 33 | 1012.9 |
| 20260507225604 | 30 | 263 | 9.7 | 19.3 | 0.00 | 0.00 | 0.00 | 32 | 1012.8 |
| 20260507225104 | 29 | 302 | 9.7 | 24.1 | 0.00 | 0.00 | 0.00 | 33 | 1012.9 |
| 20260507224104 | 30 | 270 | 11.3 | 24.1 | 0.00 | 0.00 | 0.00 | 31 | 1012.9 |
| 20260507223604 | 30 | 290 | 11.3 | 24.1 | 0.00 | 0.00 | 0.00 | 31 | 1012.9 |
| 20260507223104 | 30 | 304 | 12.9 | 19.3 | 0.00 | 0.00 | 0.00 | 31 | 1012.9 |
| 20260507222605 | 30 | 287 | 11.3 | 25.7 | 0.00 | 0.00 | 0.00 | 32 | 1012.9 |
| 20260507222104 | 30 | 328 | 12.9 | 25.7 | 0.00 | 0.00 | 0.00 | 32 | 1013.1 |
| 20260507221607 | 30 | 269 | 9.7 | 19.3 | 0.00 | 0.00 | 0.00 | 31 | 1012.9 |
| 20260507221104 | 30 | 345 | 9.7 | 19.3 | 0.00 | 0.00 | 0.00 | 30 | 1013.1 |
| 20260507220604 | 30 | 308 | 9.7 | 20.9 | 0.00 | 0.00 | 0.00 | 29 | 1013.1 |
| 20260507220104 | 30 | 250 | 9.7 | 20.9 | 0.00 | 0.00 | 0.00 | 29 | 1013.3 |
| 20260507215104 | 30 | 265 | 9.7 | 20.9 | 0.00 | 0.00 | 0.00 | 30 | 1013.3 |
| 20260507214606 | 30 | 312 | 11.3 | 19.3 | 0.00 | 0.00 | 0.00 | 27 | 1013.4 |
| 20260507214104 | 30 | 287 | 9.7 | 19.3 | 0.00 | 0.00 | 0.00 | 29 | 1013.4 |
| 20260507213604 | 30 | 293 | 11.3 | 19.3 | 0.00 | 0.00 | 0.00 | 28 | 1013.4 |
| 20260507213104 | 30 | 298 | 9.7 | 19.3 | 0.00 | 0.00 | 0.00 | 27 | 1013.4 |
| 20260507212604 | 30 | 288 | 9.7 | 19.3 | 0.00 | 0.00 | 0.00 | 26 | 1013.4 |
| 20260507212104 | 30 | 305 | 9.7 | 19.3 | 0.00 | 0.00 | 0.00 | 27 | 1013.6 |
| 20260507211104 | 30 | 296 | 11.3 | 19.3 | 0.00 | 0.00 | 0.00 | 28 | 1013.7 |
| 20260507210605 | 30 | 321 | 11.3 | 20.9 | 0.00 | 0.00 | 0.00 | 27 | 1013.7 |
| 20260507210104 | 30 | 319 | 11.3 | 20.9 | 0.00 | 0.00 | 0.00 | 27 | 1013.8 |
| 20260507205604 | 30 | 285 | 8.0 | 16.1 | 0.00 | 0.00 | 0.00 | 29 | 1013.9 |
| 20260507205104 | 30 | 272 | 9.7 | 19.3 | 0.00 | 0.00 | 0.00 | 29 | 1014.0 |
| 20260507204604 | 29 | 259 | 11.3 | 19.3 | 0.00 | 0.00 | 0.00 | 29 | 1014.1 |
| 20260507204105 | 29 | 267 | 9.7 | 19.3 | 0.00 | 0.00 | 0.00 | 29 | 1014.1 |
| 20260507203104 | 29 | 287 | 8.0 | 14.5 | 0.00 | 0.00 | 0.00 | 29 | 1014.1 |
| 20260507202604 | 28 | 242 | 4.8 | 16.1 | 0.00 | 0.00 | 0.00 | 30 | 1014.1 |
| 20260507202106 | 28 | 283 | 8.0 | 19.3 | 0.00 | 0.00 | 0.00 | 31 | 1014.1 |
| 20260507200604 | 28 | 289 | 6.4 | 14.5 | 0.00 | 0.00 | 0.00 | 31 | 1014.4 |
| 20260507200104 | 28 | 210 | 6.4 | 14.5 | 0.00 | 0.00 | 0.00 | 32 | 1014.6 |
| 20260507195604 | 28 | 277 | 8.0 | 14.5 | 0.00 | 0.00 | 0.00 | 31 | 1014.7 |
| 20260507194604 | 28 | 273 | 8.0 | 11.3 | 0.00 | 0.00 | 0.00 | 32 | 1014.7 |
| 20260507193604 | 27 | 236 | 1.6 | 12.9 | 0.00 | 0.00 | 0.00 | 32 | 1014.8 |
| 20260507193104 | 27 | 288 | 3.2 | 11.3 | 0.00 | 0.00 | 0.00 | 32 | 1014.8 |
| 20260507192603 | 27 | 282 | 3.2 | 11.3 | 0.00 | 0.00 | 0.00 | 32 | 1014.9 |
| 20260507192104 | 27 | 310 | 6.4 | 11.3 | 0.00 | 0.00 | 0.00 | 33 | 1015.0 |
| 20260507191604 | 26 | 319 | 4.8 | 12.9 | 0.00 | 0.00 | 0.00 | 32 | 1015.0 |
| 20260507191104 | 26 | 253 | 8.0 | 12.9 | 0.00 | 0.00 | 0.00 | 32 | 1015.3 |
| 20260507190604 | 26 | 297 | 4.8 | 11.3 | 0.00 | 0.00 | 0.00 | 32 | 1015.2 |
| 20260507190104 | 26 | 183 | 4.8 | 12.9 | 0.00 | 0.00 | 0.00 | 31 | 1015.3 |
| 20260507185603 | 26 | 260 | 4.8 | 12.9 | 0.00 | 0.00 | 0.00 | 31 | 1015.4 |
| 20260507185104 | 25 | 273 | 4.8 | 12.9 | 0.00 | 0.00 | 0.00 | 33 | 1015.4 |
| 20260507184604 | 25 | 300 | 4.8 | 11.3 | 0.00 | 0.00 | 0.00 | 34 | 1015.3 |
| 20260507184104 | 25 | 309 | 6.4 | 11.3 | 0.00 | 0.00 | 0.00 | 34 | 1015.4 |
| 20260507183603 | 25 | 303 | 6.4 | 11.3 | 0.00 | 0.00 | 0.00 | 34 | 1015.5 |
| 20260507183104 | 25 | 274 | 4.8 | 12.9 | 0.00 | 0.00 | 0.00 | 34 | 1015.6 |
| 20260507182604 | 25 | 273 | 8.0 | 12.9 | 0.00 | 0.00 | 0.00 | 35 | 1015.7 |
| 20260507182106 | 24 | 291 | 4.8 | 9.7 | 0.00 | 0.00 | 0.00 | 35 | 1015.7 |
| 20260507181604 | 24 | 277 | 4.8 | 9.7 | 0.00 | 0.00 | 0.00 | 36 | 1015.7 |
| 20260507181106 | 24 | 294 | 6.4 | 11.3 | 0.00 | 0.00 | 0.00 | 37 | 1015.8 |
| 20260507180604 | 23 | 253 | 8.0 | 11.3 | 0.00 | 0.00 | 0.00 | 38 | 1015.8 |
| 20260507180104 | 23 | 285 | 4.8 | 11.3 | 0.00 | 0.00 | 0.00 | 39 | 1015.9 |
| 20260507175104 | 23 | 270 | 6.4 | 11.3 | 0.00 | 0.00 | 0.00 | 39 | 1016.0 |
| 20260507174104 | 23 | 304 | 3.2 | 9.7 | 0.00 | 0.00 | 0.00 | 39 | 1016.0 |
| 20260507173605 | 22 | 318 | 4.8 | 9.7 | 0.00 | 0.00 | 0.00 | 40 | 1016.0 |
| 20260507173104 | 22 | 308 | 4.8 | 9.7 | 0.00 | 0.00 | 0.00 | 42 | 1016.0 |
| 20260507172604 | 22 | 303 | 4.8 | 11.3 | 0.00 | 0.00 | 0.00 | 43 | 1016.0 |
| 20260507172104 | 22 | 314 | 6.4 | 11.3 | 0.00 | 0.00 | 0.00 | 43 | 1016.0 |
| 20260507171604 | 22 | 281 | 4.8 | 11.3 | 0.00 | 0.00 | 0.00 | 44 | 1016.0 |
| 20260507171107 | 22 | 265 | 4.8 | 11.3 | 0.00 | 0.00 | 0.00 | 44 | 1016.0 |
| 20260507170604 | 22 | 305 | 3.2 | 9.7 | 0.00 | 0.00 | 0.00 | 44 | 1016.0 |
| 20260507165105 | 21 | 321 | 3.2 | 8.0 | 0.00 | 0.00 | 0.00 | 45 | 1016.2 |
| 20260507164604 | 21 | 298 | 4.8 | 8.0 | 0.00 | 0.00 | 0.00 | 45 | 1016.2 |
| 20260507164104 | 20 | 257 | 4.8 | 8.0 | 0.00 | 0.00 | 0.00 | 45 | 1016.2 |
| 20260507163604 | 20 | 234 | 3.2 | 8.0 | 0.00 | 0.00 | 0.00 | 45 | 1016.2 |
| 20260507163105 | 20 | 294 | 4.8 | 8.0 | 0.00 | 0.00 | 0.00 | 46 | 1016.2 |
| 20260507162105 | 19 | 318 | 3.2 | 4.8 | 0.00 | 0.00 | 0.00 | 46 | 1016.2 |
| 20260507161104 | 18 | 302 | 3.2 | 8.0 | 0.00 | 0.00 | 0.00 | 49 | 1016.2 |
| 20260507160104 | 18 | 273 | 4.8 | 9.7 | 0.00 | 0.00 | 0.00 | 53 | 1016.3 |
| 20260507155604 | 18 | 299 | 4.8 | 8.0 | 0.00 | 0.00 | 0.00 | 54 | 1016.2 |
| 20260507154604 | 18 | 65 | 3.2 | 8.0 | 0.00 | 0.00 | 0.00 | 55 | 1016.2 |
| 20260507154104 | 18 | 86 | 1.6 | 4.8 | 0.00 | 0.00 | 0.00 | 55 | 1016.3 |
| 20260507153104 | 17 | 89 | 1.6 | 4.8 | 0.00 | 0.00 | 0.00 | 58 | 1016.2 |
| 20260507152604 | 17 | 90 | 0.0 | 1.6 | 0.00 | 0.00 | 0.00 | 60 | 1016.2 |
| 20260507152104 | 17 | 90 | 0.0 | 3.2 | 0.00 | 0.00 | 0.00 | 59 | 1016.2 |
| 20260507151604 | 17 | 90 | 0.0 | 4.8 | 0.00 | 0.00 | 0.00 | 61 | 1016.2 |
| 20260507151107 | 17 | 90 | 3.2 | 4.8 | 0.00 | 0.00 | 0.00 | 61 | 1016.2 |
| 20260507150604 | 17 | 90 | 1.6 | 4.8 | 0.00 | 0.00 | 0.00 | 59 | 1016.3 |
| 20260507150105 | 17 | 90 | 0.0 | 3.2 | 0.00 | 0.00 | 0.00 | 57 | 1016.3 |
| 20260507145604 | 18 | 90 | 0.0 | 1.6 | 0.00 | 0.00 | 0.00 | 58 | 1016.3 |
| 20260507145104 | 17 | 79 | 0.0 | 0.0 | 0.00 | 0.00 | 0.00 | 57 | 1016.3 |
| 20260507144604 | 17 | 79 | 0.0 | 0.0 | 0.00 | 0.00 | 0.00 | 57 | 1016.3 |
| 20260507144105 | 17 | 79 | 0.0 | 0.0 | 0.00 | 0.00 | 0.00 | 59 | 1016.3 |
| 20260507143604 | 16 | 79 | 0.0 | 0.0 | 0.00 | 0.00 | 0.00 | 60 | 1016.3 |
| 20260507143104 | 16 | 79 | 0.0 | 0.0 | 0.00 | 0.00 | 0.00 | 62 | 1016.3 |
| 20260507142604 | 15 | 79 | 0.0 | 0.0 | 0.00 | 0.00 | 0.00 | 63 | 1016.3 |
| 20260507142104 | 15 | 79 | 0.0 | 0.0 | 0.00 | 0.00 | 0.00 | 65 | 1016.3 |
| 20260507141607 | 14 | 79 | 0.0 | 0.0 | 0.00 | 0.00 | 0.00 | 64 | 1016.3 |